This demonstration page uses our WeatherBlox Daily Observations layout. Learn more.

Left ArrowRight Arrow

34.74481, -87.66753

Hourly Observations for May 16, 2017

Temp ( °F °C ) Dew Point ( °F °C ) Humidity (%) Winds ( mph kmh ) Pressure ( in mb ) Visibility ( mi km ) Precip ( " mm )
12:53 am 00:53 Clear 60 15.6 57 13.9 90 90 Calm 29.98 1015 10 16 0.00 0.00
1:53 am 01:53 Clear 62 16.7 58 14.4 86 86 Calm 29.98 1015 10 16 0.00 0.00
2:53 am 02:53 Clear 60 15.6 56 13.3 86 86 Calm 29.99 1016 9 14 0.00 0.00
3:48 am 03:48 Clear with Mist and Fog 57 14 55 13 94 94 Calm 30.03 1017 2 3 0.00 0.00
3:53 am 03:53 Clear with Fog 58 14.4 55 12.8 90 90 Calm 30.00 1016 1 1 0.00 0.00
4:03 am 04:03 Clear with Mist and Fog 57 13.9 56 13.3 96 96 Calm 30.03 1017 3 4 0.00 0.00
4:11 am 04:11 Clear 57 13.9 55 12.8 93 93 Calm 30.03 1017 8 13 0.00 0.00
4:53 am 04:53 Clear with Mist and Fog 57 13.9 54 12.2 90 90 Calm 30.02 1017 3 5 0.00 0.00
4:57 am 04:57 Clear with Mist and Fog 57 13.9 54 12.2 90 90 Calm 30.03 1017 2 3 0.00 0.00
5:08 am 05:08 Clear with Mist and Fog 56 13.3 54 12.2 93 93 Calm 30.03 1017 4 6 0.00 0.00
5:14 am 05:14 Clear with Mist and Fog 55 12.8 53 11.7 93 93 Calm 30.03 1017 2 3 0.00 0.00
5:31 am 05:31 Clear with Mist and Fog 57 13.9 54 12.2 90 90 E 3 6 30.03 1017 1 1 0.00 0.00
5:35 am 05:35 Clear with Mist and Fog 57 13.9 55 12.8 93 93 Calm 30.03 1017 2 3 0.00 0.00
5:42 am 05:42 Clear 56 13.3 54 12.2 93 93 Calm 30.03 1017 8 13 0.00 0.00
5:53 am 05:53 Sunny with Mist and Fog 56 13.3 53 11.7 90 90 Calm 30.02 1017 3 4 0.00 0.00
6:01 am 06:01 Sunny with Mist and Fog 56 13.3 54 12.2 93 93 Calm 30.03 1017 2 2 0.00 0.00
6:06 am 06:06 Sunny with Mist and Fog 56 13.3 54 12.2 93 93 Calm 30.03 1017 3 5 0.00 0.00
6:53 am 06:53 Sunny 62 16.7 58 14.4 86 86 Calm 30.04 1017 10 16 0.00 0.00
7:53 am 07:53 Sunny 68 20 60 15.6 76 76 Calm 30.05 1018 10 16 0.00 0.00
8:53 am 08:53 Sunny 76 24.4 62 16.7 62 62 VRB 3 6 30.05 1018 10 16 0.00 0.00
9:53 am 09:53 Sunny 82 27.8 57 13.9 42 42 S 10 17 30.05 1018 10 16 0.00 0.00
10:53 am 10:53 Sunny 84 28.9 56 13.3 38 38 S 9 15 30.05 1018 10 16 0.00 0.00
11:53 am 11:53 Sunny 86 30 56 13.3 36 36 SSW 10 17 30.04 1017 10 16 0.00 0.00
12:53 pm 12:53 Sunny 86 30 58 14.4 39 39 SSW 12 19 30.02 1017 10 16 0.00 0.00
1:53 pm 13:53 Sunny 88 31.1 60 15.6 39 39 S 10 17 30.01 1016 10 16 0.00 0.00
2:53 pm 14:53 Sunny 88 31.1 58 14.4 36 36 SW 10 17 29.99 1016 10 16 0.00 0.00
3:53 pm 15:53 Sunny 89 31.7 58 14.4 35 35 S 9 15 29.97 1015 10 16 0.00 0.00
4:53 pm 16:53 Sunny 89 31.7 56 13.3 33 33 SSW 13 20 29.96 1015 10 16 0.00 0.00
5:53 pm 17:53 Sunny 88 31.1 57 13.9 35 35 S 12 19 29.95 1014 10 16 0.00 0.00
6:53 pm 18:53 Sunny 85 29.4 59 15 42 42 S 6 9 29.95 1014 10 16 0.00 0.00
7:53 pm 19:53 Clear 80 26.7 60 15.6 51 51 SSE 5 7 29.95 1014 10 16 0.00 0.00
8:53 pm 20:53 Clear 73 22.8 62 16.7 69 69 SSE 5 7 29.95 1014 10 16 0.00 0.00
9:53 pm 21:53 Clear 72 22.2 60 15.6 66 66 SSE 6 9 29.95 1014 10 16 0.00 0.00
10:53 pm 22:53 Clear 69 20.6 60 15.6 73 73 SE 3 6 29.94 1014 10 16 0.00 0.00
11:53 pm 23:53 Mostly Clear 70 21.1 60 15.6 71 71 SE 6 9 29.93 1014 10 16 0.00 0.00

Powered by AerisWeather